Starlink 11352

operational
NORAD ID: 62880 Int'l Des: 2025-024 Owner: SPXS Country: US Constellation: starlink
LEOCIRCULAR

Über Starlink 11352

Beschreibung wird geladen...

Live-Position

3D-Globus wird geladen...

Nächste Überflüge

Höhenverlauf

Altitude vs Time

uPlot chart will show altitude changes over time

Zweizeiliger Elementsatz

1 62880U 25024B 25258.99166881 .00252816 00000-0 19028-2 0 9993
2 62880 42.9986 154.2555 0002361 249.2637 110.7978 15.70984229 35992
Epoch: 15. Sept. 2025 • Age: 25 hours

Aktueller Status

Höhe 355.7 km
Geschwindigkeit 7.70 km/s
Subsatellitenpunkt 28.64°N, 75.61°W
Startdatum 4. Feb. 2025
Alter 0.6 years
Typ internet

Technische Details

Klassifizierung Payload
Masse 960.00 kg
Trockenmasse 910.00 kg
Gesamtmasse 960.00 kg
Länge 0.30 m
Durchmesser 4.10 m
Spannweite 29.00 m
Form Box + pan
Hersteller SPXS
Bus-Typ Starlink V2MD
Phasenstatus In Orbit
Besitzer/Staat SPXS/US

Große Konstellationen

Loading constellations...